Simultaneous Nadir Overpasses (SNOs) Predictions

Prediction of SNOs between METOP-C and LANDSAT-8 Satellite Orbit:

Table of predicted SNOs for the next 14.0 days since TLE Epoch: 11/29/2025
Index Date (METOP-C) Time (METOP-C) Lat,Lon (METOP-C) SZA (METOP-C ) Date (LANDSAT-8) Time (LANDSAT-8) Lat,Lon (LANDSAT-8) SZA (LANDSAT-8 ) Distance(km) Time Diff (sec)
1 11/30/2025 09:59:22 -81.12,-110.16 74.98 11/30/2025 10:00:02 -81.11,-110.31 74.99 2.85 40
2 11/30/2025 10:50:01 81.14, 57.65 105.09 11/30/2025 10:49:27 81.14, 57.77 105.09 2.12 34
3 12/03/2025 05:33:41 -81.13, -43.62 74.58 12/03/2025 05:34:14 -81.13, -43.64 74.56 0.30 33
4 12/03/2025 06:24:19 81.15, 124.53 105.54 12/03/2025 06:23:39 81.15, 124.42 105.51 1.87 40
5 12/06/2025 01:08:01 -81.13, 22.85 74.24 12/06/2025 01:08:27 -81.13, 22.87 74.22 0.46 26
6 12/06/2025 01:58:39 81.15,-169.03 105.87 12/06/2025 01:57:52 81.16,-169.10 105.84 1.21 47
7 12/08/2025 20:42:21 -81.13, 89.25 73.96 12/08/2025 20:42:40 -81.12, 89.20 73.97 0.99 19
8 12/08/2025 21:32:59 81.15,-102.65 106.14 12/08/2025 21:32:05 81.15,-102.79 106.10 2.47 54
9 12/11/2025 16:16:40 -81.12, 155.58 73.76 12/11/2025 16:16:51 -81.13, 155.72 73.74 2.38 11



Historial Predications of SNOs between METOP-C and LANDSAT-8
